Home > Weather > Freistadt > Past weeks

Flag for Austria Weather for the Past 2 Weeks in Freistadt, Upper Austria, Austria

Now
42 °F

Quite cool.


Feels Like: 42 °F
Forecast: 45 / 64 °F
Wind: 1 mph from Northwest

Location: Rohrbach

Current Time: May 5, 2016 at 8:57:06 AM

Latest Report: May 5, 2016 at 8:00 AM


Visibility: N/A

Pressure: 30.34 "Hg (28.31 "Hg at 565m altitude)

Humidity: 95%

Dew Point: 40 °F

Location of FreistadtLocation

Historic Weather in Freistadt — Graph

°F

Freistadt Temperature Yesterday

Maximum temperature yesterday: 49 °F (at 1:00 AM)
Minimum temperature yesterday: 41 °F (at 11:00 PM)
Average temperature yesterday: 45 °F

High & Low Weather Summary for the Past Weeks

 TemperatureHumidityPressure
High65 °F (Apr 30, 4:00 PM)99% (May 3, 6:00 AM)30.40 "Hg (May 3, 6:00 AM)
Low28 °F (Apr 28, 6:00 AM)31% (Apr 30, 4:00 PM)29.62 "Hg (Apr 23, 7:00 PM)
Average46 °F68%30.02 "Hg
* Reported Apr 20 7:00 AM — May 5 7:00 AM, Freistadt, Weather by CustomWeather, © 2016

Note: Actual official high and low records may vary slightly from our data, if they occured in-between our weather recording intervals... More about our weather records

Advertising

Freistadt Weather History for the Previous 24 Hours

Scroll right to see more
 ConditionsComfort  
Time TempWeatherWind HumidityBarometerVisibility
7:00 AM
Thu, May 5
42 °FQuite cool.1 mph95%30.34 "HgN/A
6:00 AM42 °FQuite cool.No wind93%30.35 "HgN/A
5:00 AM41 °FQuite cool.1 mph93%30.34 "HgN/A
4:00 AMN/APassing clouds.22 mphN/AN/A2 mi
3:00 AM41 °FQuite cool.1 mph93%30.35 "HgN/A
2:00 AM41 °FQuite cool.1 mph92%30.36 "HgN/A
1:00 AM40 °FSprinkles. Overcast.1 mph91%30.38 "HgN/A
12:00 AM41 °FFog.2 mph89%30.39 "HgN/A
11:00 PM
Wed, May 4
41 °FQuite cool.2 mph88%30.38 "HgN/A
10:00 PM42 °FFog.2 mph88%30.37 "HgN/A
9:00 PM43 °FFog.3 mph85%30.35 "HgN/A
8:00 PM44 °FQuite cool.2 mph88%30.34 "HgN/A
7:00 PM45 °FCool.1 mph84%30.32 "HgN/A
6:00 PM46 °FFog.2 mph86%30.30 "HgN/A
5:00 PM46 °FCool.2 mph82%30.30 "HgN/A
4:00 PM46 °FFog.3 mph82%30.30 "HgN/A
3:00 PM46 °FFog.3 mph86%30.31 "HgN/A
2:00 PM46 °FCool.2 mph87%30.30 "HgN/A
1:00 PM45 °FCool.2 mph85%30.30 "HgN/A
12:00 PM45 °FCool.3 mph84%30.29 "HgN/A
11:00 AM46 °FFog.3 mph79%30.28 "HgN/A
10:00 AM46 °FCool.5 mph75%30.27 "HgN/A
9:00 AM45 °FCool.3 mph77%30.25 "HgN/A
8:00 AM45 °FQuite cool.3 mph80%30.24 "HgN/A
Weather by CustomWeather, © 2016

See weather overviewHow to use our weather pages